Location: Unspecified
(48.7670°N, 0.0000°E)
Time: 03:39:01
(UTC+00:00)

Vanguard 2 Rocket - Pass Details

Date: 07 October 2020
Orbit: 554 x 3326 km, 32.9° (Epoch: 26 October)

Event Time Altitude Azimuth Distance (km) Brightness Sun altitude
Exits shadow 03:07:11 39° 219° (SW) 3,940 9.6 -29.8°
Maximum altitude 03:12:25 46° 186° (S) 3,878 9.7 -29.0°
Drops below altitude 10° 03:30:52 10° 122° (ESE) 6,189 11.5 -26.3°
Sets 03:35:42 0° 117° (ESE) 7,054 12.0 -25.6°
